Location: Palomar Observatory
(33.3560°N, 116.8630°W)
Time: 15:26:15
(UTC-07:00)

Iridium 57 - Visible Passes

Search period start: 01 August 2014 00:00
Search period end: 11 August 2014 00:00
Orbit: 776 x 779 km, 86.4° (Epoch: 01 August)

Date Brightness Start Highest point End Pass type
(mag) Time Alt. Az. Time Alt. Az. Time Alt. Az.
01 Aug 7.3 03:52:21 10° SE 03:56:48 30° E 04:01:16 10° NNE visible
02 Aug 8.1 03:20:37 10° ESE 03:23:33 15° E 03:26:29 10° NE visible
02 Aug 5.8 04:58:47 10° SSW 05:03:46 47° W 05:08:48 10° NNW visible
03 Aug 5.5 04:25:52 15° S 04:30:13 87° E 04:35:27 10° N visible
04 Aug 6.5 03:52:59 16° SSE 03:56:47 44° E 04:01:43 10° NNE visible
04 Aug 7.1 05:34:28 10° WSW 05:37:41 16° WNW 05:40:55 10° NW visible
05 Aug 7.6 03:20:05 13° SE 03:23:28 23° E 03:27:28 10° NNE visible
05 Aug 6.3 05:00:35 16° SW 05:03:56 31° W 05:08:33 10° NNW visible
06 Aug 8.2 02:48:38 10° E 02:50:16 11° E 02:51:54 10° ENE visible
06 Aug 5.5 04:27:39 28° SSW 04:30:19 62° W 04:35:29 10° N visible
07 Aug 5.8 03:54:42 35° SSE 03:56:49 67° E 04:01:59 10° N visible
07 Aug 7.5 05:36:56 10° W 05:37:58 11° WNW 05:39:01 10° WNW visible
08 Aug 6.9 03:21:43 27° ESE 03:23:26 34° E 03:28:04 10° NNE visible
08 Aug 6.8 05:02:13 18° WSW 05:04:09 21° W 05:08:05 10° NNW visible
09 Aug 7.8 02:48:43 16° ESE 02:50:09 18° E 02:53:31 10° NE visible
09 Aug 6.0 04:29:12 35° WSW 04:30:27 41° W 04:35:22 10° NNW visible
10 Aug 5.4 03:56:11 67° SSW 03:56:53 81° W 04:02:07 10° N visible
